K3CHZ Weather Reports


Display with metric or nautical units.
time (UTC)temp
F
wind
direction
speed
MPH
gust
MPH
rain 1hr
in
rain 24hr
in
rain mn
in
humidity
%
barometer
mb
20260504010216 48 285 0.0 0.0 0.00 0.00 0.00 68 1014.7
20260504005717 49 285 0.0 0.0 0.00 0.00 0.00 68 1014.7
20260504005217 49 285 0.0 0.0 0.00 0.00 0.00 66 1014.7
20260504004718 49 285 0.0 0.0 0.00 0.00 0.00 64 1014.6
20260504004217 50 285 0.0 0.0 0.00 0.00 0.00 64 1014.5
20260504003716 50 285 0.0 0.0 0.00 0.00 0.00 62 1014.5
20260504003217 51 285 0.0 0.0 0.00 0.00 0.00 64 1014.4
20260504002719 52 285 0.0 0.0 0.00 0.00 0.00 63 1014.4
20260504002216 52 285 0.0 0.0 0.00 0.00 0.00 61 1014.4
20260504001717 53 285 0.0 0.0 0.00 0.00 0.00 59 1014.4
20260504001218 54 285 0.0 0.0 0.00 0.00 0.00 57 1014.3
20260504000717 55 285 0.0 0.0 0.00 0.00 0.00 52 1014.3
20260504000219 56 285 0.0 0.0 0.00 0.00 0.00 50 1014.3
20260503235718 56 285 0.0 0.0 0.00 0.00 0.00 42 1014.2
20260503235217 57 285 0.0 0.0 0.00 0.00 0.00 40 1014.1
20260503234717 57 285 0.0 0.0 0.00 0.00 0.00 38 1014.1
20260503234216 57 285 0.0 0.0 0.00 0.00 0.00 42 1014.1
20260503233717 58 285 0.0 0.0 0.00 0.00 0.00 43 1014.1
20260503233217 58 285 0.0 2.0 0.00 0.00 0.00 37 1014.0
20260503232718 58 285 0.0 2.0 0.00 0.00 0.00 38 1013.9
20260503232223 58 285 0.0 2.0 0.00 0.00 0.00 38 1013.9
20260503231722 58 285 0.0 0.0 0.00 0.00 0.00 39 1013.8
20260503231223 58 285 0.0 1.0 0.00 0.00 0.00 37 1013.8
20260503230722 58 285 0.0 3.0 0.00 0.00 0.00 38 1013.8
20260503230222 59 315 0.0 3.0 0.00 0.00 0.00 36 1013.8
20260503225723 59 315 0.0 1.0 0.00 0.00 0.00 39 1013.8
20260503225222 59 315 0.0 0.0 0.00 0.00 0.00 40 1013.9
20260503224722 59 315 0.0 0.0 0.00 0.00 0.00 35 1013.9
20260503224222 59 315 0.0 0.0 0.00 0.00 0.00 37 1013.9
20260503223723 59 315 0.0 3.0 0.00 0.00 0.00 36 1013.9
20260503223223 59 315 0.0 5.0 0.00 0.00 0.00 35 1014.0
20260503222720 60 314 0.0 5.0 0.00 0.00 0.00 34 1014.0
20260503222221 60 310 0.0 5.0 0.00 0.00 0.00 38 1013.9
20260503221720 60 305 0.0 3.0 0.00 0.00 0.00 35 1013.9
20260503221220 60 305 0.0 3.0 0.00 0.00 0.00 34 1013.9
20260503220719 60 306 1.0 5.0 0.00 0.00 0.00 33 1013.9
20260503220219 60 308 1.0 5.0 0.00 0.00 0.00 35 1013.9
20260503215722 60 293 0.0 5.0 0.00 0.00 0.00 34 1014.0
20260503215220 60 316 1.0 5.0 0.00 0.00 0.00 35 1014.0
20260503214720 60 289 1.0 3.0 0.00 0.00 0.00 36 1013.9
20260503214219 60 311 1.0 3.0 0.00 0.00 0.00 32 1014.0
20260503213720 60 305 0.0 3.0 0.00 0.00 0.00 32 1014.0
20260503213220 60 279 0.0 3.0 0.00 0.00 0.00 33 1014.0
20260503212718 60 275 1.0 3.0 0.00 0.00 0.00 34 1014.0
20260503212218 60 306 1.0 5.0 0.00 0.00 0.00 32 1013.9
20260503211717 60 332 0.0 5.0 0.00 0.00 0.00 34 1013.9
20260503211216 60 310 1.0 3.0 0.00 0.00 0.00 34 1013.9
20260503210718 60 308 0.0 6.0 0.00 0.00 0.00 35 1014.0
20260503210217 60 328 2.0 6.0 0.00 0.00 0.00 33 1014.0
20260503205717 59 330 2.0 6.0 0.00 0.00 0.00 33 1014.0
20260503205217 59 304 1.0 5.0 0.00 0.00 0.00 35 1014.0
20260503204718 59 10 0.0 3.0 0.00 0.00 0.00 33 1014.0
20260503204218 59 330 0.0 8.0 0.00 0.00 0.00 34 1014.0
20260503203718 59 267 0.0 8.0 0.00 0.00 0.00 34 1014.1
20260503203218 59 302 3.0 8.0 0.00 0.00 0.00 34 1014.1
20260503202717 59 291 0.0 5.0 0.00 0.00 0.00 35 1014.3
20260503202503 59 280 1.0 5.0 0.00 0.00 0.00 33 1014.3
20260503202006 60 307 1.0 7.0 0.00 0.00 0.00 33 1014.3
20260503201505 60 317 3.0 7.0 0.00 0.00 0.00 33 1014.4
20260503201006 60 323 3.0 5.0 0.00 0.00 0.00 33 1014.4
20260503200220 59 332 2.0 7.0 0.00 0.00 0.00 34 1014.4
20260503195720 59 223 2.0 7.0 0.00 0.00 0.00 35 1014.5
20260503195219 59 308 1.0 7.0 0.00 0.00 0.00 35 1014.6
20260503194721 60 294 0.0 5.0 0.00 0.00 0.00 35 1014.6
20260503194220 60 285 0.0 5.0 0.00 0.00 0.00 34 1014.9
20260503193720 60 324 1.0 3.0 0.00 0.00 0.00 35 1014.9
20260503193220 59 333 0.0 8.0 0.00 0.00 0.00 35 1014.9
20260503192721 59 313 3.0 8.0 0.00 0.00 0.00 37 1015.0
20260503192220 59 282 0.0 7.0 0.00 0.00 0.00 36 1015.1
20260503191720 60 309 2.0 7.0 0.00 0.00 0.00 38 1015.2
20260503191220 60 304 3.0 10.0 0.00 0.00 0.00 36 1015.2
20260503190720 60 331 2.0 10.0 0.00 0.00 0.00 38 1015.2
20260503190220 60 298 1.0 8.0 0.00 0.00 0.00 38 1015.2
20260503185720 59 312 3.0 8.0 0.00 0.00 0.00 37 1015.4
20260503185222 59 285 2.0 9.0 0.00 0.00 0.00 38 1015.3
20260503184720 60 323 2.0 10.0 0.00 0.00 0.00 36 1015.5
20260503184219 59 291 3.0 10.0 0.00 0.00 0.00 37 1015.5
20260503183720 59 313 2.0 7.0 0.00 0.00 0.00 38 1015.5
20260503183221 58 276 2.0 7.0 0.00 0.00 0.00 37 1015.6
20260503182720 58 277 0.0 5.0 0.00 0.00 0.00 40 1015.6
20260503182221 58 298 0.0 6.0 0.00 0.00 0.00 43 1015.7
20260503181720 58 293 1.0 6.0 0.00 0.00 0.00 37 1015.7
20260503181221 57 295 1.0 7.0 0.00 0.00 0.00 40 1015.8
20260503180720 58 322 2.0 7.0 0.00 0.00 0.00 38 1015.7
20260503180220 58 333 2.0 7.0 0.00 0.00 0.00 38 1015.8
20260503175720 59 308 1.0 5.0 0.00 0.00 0.00 38 1015.9
20260503175220 58 315 1.0 7.0 0.00 0.00 0.00 43 1015.9
20260503174720 58 305 1.0 7.0 0.00 0.00 0.00 40 1015.9
20260503174220 57 325 0.0 10.0 0.00 0.00 0.00 41 1016.1
20260503173720 57 318 0.0 10.0 0.00 0.00 0.00 39 1015.9
20260503173220 57 321 2.0 7.0 0.00 0.00 0.00 43 1016.0
20260503172723 57 270 1.0 5.0 0.00 0.00 0.00 41 1015.9
20260503172220 57 346 2.0 5.0 0.00 0.00 0.00 40 1016.0
20260503171720 56 323 1.0 12.0 0.00 0.00 0.00 42 1016.1
20260503171219 55 318 5.0 12.0 0.00 0.00 0.00 51 1016.4
20260503170720 55 323 2.0 5.0 0.00 0.00 0.00 42 1016.4
20260503170220 55 328 1.0 7.0 0.00 0.00 0.00 41 1016.4
20260503150717 53 336 2.0 10.0 0.00 0.00 0.00 48 1016.9
20260503150216 52 320 3.0 10.0 0.00 0.00 0.00 44 1016.8
20260503140220 50 326 2.0 8.0 0.00 0.00 0.00 46 1016.9
20260503131217 46 304 2.0 5.0 0.00 0.00 0.00 58 1016.9
20260503130717 45 288 1.0 5.0 0.00 0.00 0.00 58 1016.9
20260503130218 45 304 2.0 5.0 0.00 0.00 0.00 61 1017.0
20260503120220 41 309 1.0 5.0 0.00 0.00 0.00 69 1016.7
20260503110716 38 323 0.0 0.0 0.00 0.00 0.00 77 1016.0
20260503110214 39 323 0.0 0.0 0.00 0.00 0.00 77 1016.0
20260503100218 39 323 0.0 2.0 0.00 0.00 0.00 73 1015.0
20260503090220 40 323 0.0 2.0 0.00 0.00 0.00 76 1014.6
20260503081217 40 323 0.0 2.0 0.00 0.00 0.00 75 1014.3
20260503080717 40 323 0.0 1.0 0.00 0.00 0.00 75 1014.3
20260503080218 40 323 0.0 1.0 0.00 0.00 0.00 75 1014.1
20260503072718 41 323 0.0 1.0 0.00 0.00 0.00 74 1013.8
20260503072217 41 323 0.0 1.0 0.00 0.00 0.00 74 1013.8
20260503071718 41 323 0.0 1.0 0.00 0.00 0.00 74 1013.8
20260503071218 41 323 0.0 2.0 0.00 0.00 0.00 74 1013.7
20260503070718 41 323 0.0 3.0 0.00 0.00 0.00 74 1013.7
20260503070217 41 323 1.0 3.0 0.00 0.00 0.00 74 1013.6
20260503060215 42 323 0.0 0.0 0.00 0.00 0.00 71 1013.6
20260503054715 43 323 0.0 2.0 0.00 0.00 0.00 71 1013.6
20260503054214 43 323 0.0 1.0 0.00 0.00 0.00 71 1013.5
20260503053714 43 323 0.0 1.0 0.00 0.00 0.00 70 1013.5
20260503053214 43 323 0.0 0.0 0.00 0.00 0.00 71 1013.5
20260503052715 43 323 0.0 0.0 0.00 0.00 0.00 71 1013.5
20260503052218 43 323 0.0 0.0 0.00 0.00 0.00 70 1013.7
20260503051718 43 323 0.0 1.0 0.00 0.00 0.00 71 1013.6
20260503051219 43 323 0.0 1.0 0.00 0.00 0.00 71 1013.7
20260503050718 43 323 0.0 0.0 0.00 0.00 0.00 71 1013.7
20260503050217 43 323 0.0 0.0 0.00 0.00 0.00 72 1013.8
20260503045717 44 323 0.0 0.0 0.00 0.00 0.00 72 1013.8
20260503045217 44 323 0.0 0.0 0.00 0.00 0.00 70 1013.8
20260503044719 44 323 0.0 0.0 0.00 0.00 0.00 70 1013.8
20260503044218 44 323 0.0 0.0 0.00 0.00 0.00 71 1013.8
20260503043717 45 323 0.0 0.0 0.00 0.00 0.00 70 1013.9
20260503043218 45 323 0.0 0.0 0.00 0.00 0.00 71 1013.9
20260503042717 45 323 0.0 0.0 0.00 0.00 0.00 71 1013.9
20260503042217 45 323 0.0 0.0 0.00 0.00 0.00 71 1014.0
20260503041717 46 323 0.0 0.0 0.00 0.00 0.00 70 1013.9
20260503041217 46 323 0.0 0.0 0.00 0.00 0.00 66 1013.9
20260503040721 46 323 0.0 0.0 0.00 0.00 0.00 66 1014.1
20260503040218 46 323 0.0 0.0 0.00 0.00 0.00 65 1014.1
20260503035717 46 323 0.0 0.0 0.00 0.00 0.00 64 1014.0
20260503035219 46 323 0.0 0.0 0.00 0.00 0.00 66 1014.1
20260503034718 47 323 0.0 2.0 0.00 0.00 0.00 63 1014.1
20260503034217 47 323 0.0 2.0 0.00 0.00 0.00 64 1014.1
20260503033717 47 323 0.0 2.0 0.00 0.00 0.00 63 1014.2
20260503033217 47 323 0.0 2.0 0.00 0.00 0.00 63 1014.1
20260503032717 47 323 0.0 2.0 0.00 0.00 0.00 63 1014.1
20260503032217 48 323 0.0 2.0 0.00 0.00 0.00 63 1014.0
20260503031719 48 323 0.0 0.0 0.00 0.00 0.00 63 1014.0
20260503031218 48 323 0.0 0.0 0.00 0.00 0.00 63 1014.1
20260503030717 48 323 0.0 0.0 0.00 0.00 0.00 62 1014.1
20260503030218 48 323 0.0 1.0 0.00 0.00 0.00 62 1014.1
20260503025717 48 323 0.0 1.0 0.00 0.00 0.00 62 1014.0
20260503025217 49 323 0.0 1.0 0.00 0.00 0.00 62 1014.1
20260503024718 49 323 0.0 2.0 0.00 0.00 0.00 62 1014.0
20260503024218 49 323 0.0 2.0 0.00 0.00 0.00 61 1014.1
20260503023718 49 323 0.0 2.0 0.00 0.00 0.00 61 1014.1
20260503023218 49 323 0.0 1.0 0.00 0.00 0.00 62 1014.1
20260503022718 49 323 0.0 1.0 0.00 0.00 0.00 62 1014.1
20260503022217 48 323 0.0 1.0 0.00 0.00 0.00 63 1014.1
20260503021717 48 323 0.0 2.0 0.00 0.00 0.00 64 1014.1
20260503021219 48 323 0.0 2.0 0.00 0.00 0.00 69 1013.9
20260503020718 48 323 0.0 0.0 0.00 0.00 0.00 69 1013.9
20260503020218 48 323 0.0 0.0 0.00 0.00 0.00 68 1013.9
20260503015718 48 323 0.0 1.0 0.00 0.00 0.00 67 1013.9
20260503015217 48 323 0.0 1.0 0.00 0.00 0.00 69 1013.7
20260503014720 48 323 0.0 1.0 0.00 0.00 0.00 68 1013.7
20260503014219 48 323 0.0 0.0 0.00 0.00 0.00 67 1013.7
20260503013718 48 323 0.0 0.0 0.00 0.00 0.00 67 1013.6
20260503013218 48 323 0.0 0.0 0.00 0.00 0.00 66 1013.5
20260503012718 48 323 0.0 0.0 0.00 0.00 0.00 69 1013.5
20260503012221 49 323 0.0 1.0 0.00 0.00 0.00 70 1013.4
20260503011721 49 323 0.0 1.0 0.00 0.00 0.00 66 1013.4
20260503011221 49 323 0.0 0.0 0.00 0.00 0.00 66 1013.3
20260503010721 49 323 0.0 0.0 0.00 0.00 0.00 65 1013.3